Simultaneous Nadir Overpasses (SNOs) Predictions

Prediction of SNOs between FY3D and TERRA Satellite Orbit:

Table of predicted SNOs for the next 14.0 days since TLE Epoch: 9/7/2024
Index Date (FY3D) Time (FY3D) Lat,Lon (FY3D) SZA (FY3D ) Date (TERRA) Time (TERRA) Lat,Lon (TERRA) SZA (TERRA ) Distance(km) Time Diff (sec)
1 09/08/2024 15:27:28 76.16, -51.56 70.75 09/08/2024 15:27:45 76.19, -51.61 70.77 3.42 17
2 09/08/2024 16:18:12 -76.15, 115.81 109.26 09/08/2024 16:17:08 -76.11, 115.82 109.30 3.86 64
3 09/11/2024 02:40:13 76.20, 140.17 71.72 09/11/2024 02:40:27 76.22, 140.26 71.74 3.11 14
4 09/11/2024 03:30:56 -76.14, -52.28 108.33 09/11/2024 03:29:50 -76.15, -52.29 108.32 1.33 66
5 09/13/2024 13:52:57 76.22, -28.02 72.68 09/13/2024 13:53:08 76.21, -27.96 72.68 1.54 11
6 09/13/2024 14:43:40 -76.15, 139.55 107.38 09/13/2024 14:42:31 -76.15, 139.51 107.38 1.15 69
7 09/16/2024 01:05:40 76.21, 163.88 73.63 09/16/2024 01:05:47 76.22, 163.87 73.64 1.51 7
8 09/16/2024 01:56:23 -76.14, -28.54 106.44 09/16/2024 01:55:10 -76.17, -28.64 106.41 4.48 73
9 09/18/2024 11:27:50 -76.78,-173.77 104.87 09/18/2024 11:28:55 -76.73,-170.34 104.90 87.46 65
10 09/18/2024 12:18:23 76.23, -4.31 74.60 09/18/2024 12:18:24 76.25, -4.24 74.62 3.27 1
11 09/18/2024 13:09:02 -75.97, 163.94 105.65 09/18/2024 13:07:51 -76.00, 162.67 105.62 34.44 71
12 09/20/2024 22:40:27 -76.55, 19.03 104.14 09/20/2024 22:41:37 -76.44, 20.52 104.24 40.50 70
13 09/20/2024 23:31:05 76.22,-172.40 75.55 09/20/2024 23:31:00 76.24,-172.44 75.58 3.02 5



Historial Predications of SNOs between FY3D and TERRA
